Theta_e
309 309 309 309 308 305 302 301 301 303 304 305 306 305 306 306 307 309 317 312 314 314 325 328 326 329 329 330 331 331 330 331 331 331 330 324 326 327 327 329 328 323 323 326 326
309 309 309 309 308 308 307 306 302 301 300 303 305 305 306 305 307 312 311 312 317 317 316 329 330 329 329 330 330 330 329 331 330 329 329 325 324 326 327 326 328 325 325 326 326
309 309 309 309 308 308 308 308 307 306 303 300 301 304 305 305 316 314 319 320 316 319 318 321 328 330 331 330 330 329 329 328 328 329 328 326 323 323 326 327 326 324 324 324 324
308 309 310 309 309 308 308 308 307 307 306 304 301 300 303 306 310 319 318 316 318 317 319 320 321 327 331 331 330 330 328 329 328 329 329 327 326 325 326 326 324 323 324 322 322
305 306 307 309 309 309 309 308 307 307 307 306 304 301 304 313 312 312 315 319 318 319 321 319 318 321 325 330 330 330 329 329 330 329 327 326 326 326 325 326 324 323 324 323 321
305 304 305 306 307 308 309 309 308 308 308 307 307 306 312 311 309 311 312 315 319 318 319 318 318 319 322 327 329 330 329 329 330 328 327 327 327 324 325 326 323 323 320 320 320
304 305 305 304 305 306 308 308 309 308 308 308 311 311 310 309 311 313 314 313 314 321 320 318 318 319 321 321 322 325 326 327 328 327 326 327 325 325 325 325 325 324 321 321 320
301 302 304 305 305 305 304 305 306 306 307 308 312 311 310 307 310 309 310 311 314 315 323 321 319 318 319 320 322 323 324 327 326 326 326 325 326 325 326 325 326 325 324 323 321
305 302 300 303 305 305 304 304 304 305 306 309 312 311 308 308 309 309 311 312 313 315 320 324 323 320 321 321 322 322 324 326 327 326 327 326 327 326 326 325 325 325 324 324 322
307 306 304 299 301 303 304 303 304 307 310 312 312 311 310 313 312 313 313 313 315 316 315 315 316 317 317 321 324 323 325 326 327 327 326 327 326 327 326 326 325 326 325 325 325
306 306 305 304 297 302 304 305 311 314 313 313 313 310 314 314 316 317 315 315 315 314 315 318 318 321 318 319 323 323 325 327 327 327 326 329 329 330 329 327 326 326 326 324 324
305 305 305 305 300 299 302 305 308 310 313 313 312 313 312 314 315 317 317 316 315 314 314 314 315 316 322 321 324 323 323 324 326 327 330 330 329 330 329 327 326 326 325 325 326
304 304 304 305 303 299 305 306 310 307 312 314 314 314 315 315 316 316 317 316 316 314 314 314 315 316 322 322 324 325 324 324 326 327 328 328 330 330 330 328 327 326 324 327 326
304 304 305 305 303 304 306 309 310 310 314 310 312 313 314 317 318 317 317 316 316 316 315 314 315 319 322 323 324 325 325 326 327 328 329 329 329 328 327 326 326 326 322 326 326
304 304 305 305 304 302 306 308 309 313 314 312 312 314 313 318 320 320 318 318 316 317 316 315 315 316 320 322 323 325 326 326 327 327 327 327 326 326 327 328 326 324 324 327 327
304 304 304 305 306 302 305 308 310 313 314 313 316 315 315 317 320 321 319 318 317 317 317 317 317 317 317 319 322 324 325 325 326 328 330 328 328 327 327 328 327 328 329 329 327
304 304 304 305 306 305 304 308 314 315 310 312 317 316 316 316 319 321 319 318 318 317 319 318 317 317 318 317 318 324 324 327 329 329 329 327 327 325 326 326 325 327 329 328 328
304 303 304 305 304 306 305 312 313 309 310 311 311 312 314 317 317 319 320 319 317 317 318 319 318 317 318 317 318 318 324 326 331 332 328 327 330 329 328 326 324 330 329 328 327
304 304 305 305 305 306 307 312 310 308 308 309 309 311 314 316 317 317 318 319 318 317 317 319 319 319 318 319 319 322 325 323 328 329 328 328 331 329 326 324 325 331 330 328 327
304 305 305 305 306 306 306 309 307 307 308 308 309 309 311 312 316 318 318 318 319 318 317 319 320 320 319 318 319 320 324 327 326 329 330 328 330 333 327 324 326 331 332 329 327
304 304 304 305 306 306 307 309 307 307 307 307 307 308 310 311 313 316 320 320 319 319 317 319 323 324 320 319 318 320 323 326 324 324 328 329 328 327 326 324 331 331 331 328 326
303 305 305 306 307 306 307 307 308 307 307 307 307 307 308 310 314 316 319 321 319 320 319 319 322 323 325 321 320 321 322 326 328 330 325 325 329 326 326 331 331 332 330 326 324
305 305 307 306 310 307 306 307 307 307 307 308 309 310 307 311 316 317 318 318 319 320 319 319 320 325 326 323 321 320 326 325 327 326 329 329 328 329 327 326 332 330 329 327 325
304 304 307 308 307 307 307 306 305 305 305 307 307 309 308 308 310 315 316 317 317 320 328 324 319 320 326 326 324 321 327 326 327 327 327 329 329 329 327 325 326 330 328 327 326
304 306 307 306 306 306 305 306 306 305 305 304 307 309 309 309 310 312 315 316 317 322 315 323 320 322 321 324 326 325 328 327 326 328 328 327 329 328 326 324 325 329 328 327 326
303 305 304 305 306 306 306 307 307 307 307 308 309 309 311 312 311 313 314 315 315 314 313 317 323 321 323 324 324 325 326 327 327 326 327 326 326 327 329 325 325 330 329 328 327
303 304 304 305 305 306 307 308 308 308 308 308 309 308 309 312 311 312 310 311 312 312 314 317 329 322 322 322 323 324 327 327 327 326 325 325 325 327 329 327 326 327 330 329 327
Wind_Speed
15 15 15 16 16 17 18 17 17 18 19 18 18 19 16 21 24 20 12 20 18 24 12 9 14 16 18 9 14 13 6 12 17 16 13 8 6 5 7 2 3 10 6 13 29
20 21 20 19 19 18 17 18 18 18 19 19 20 19 17 20 24 19 32 31 21 20 27 16 14 15 8 9 8 9 6 19 16 16 14 9 7 6 7 9 4 8 11 24 28
19 21 22 23 22 21 21 22 21 20 20 19 20 19 16 18 6 8 2 9 30 28 28 24 20 14 16 15 17 14 16 16 17 17 16 8 9 8 11 5 1 11 11 10 8
18 18 19 21 22 23 22 22 21 21 21 20 20 19 16 8 7 6 6 17 6 33 25 20 16 14 18 17 20 17 21 20 21 19 16 6 8 15 8 5 7 8 13 8 9
20 20 20 20 20 22 22 21 20 22 22 21 21 17 8 6 13 20 19 9 3 10 26 17 14 17 20 22 19 21 20 22 20 18 6 7 13 17 7 5 6 8 13 12 11
20 20 20 22 23 23 25 24 24 25 24 22 20 16 5 14 22 26 28 22 16 15 18 18 14 20 13 16 20 19 19 20 19 15 7 13 17 6 8 4 7 8 11 11 11
19 19 20 21 23 23 26 26 27 27 26 23 18 10 10 22 12 13 17 21 17 23 14 25 24 13 5 10 12 18 21 22 20 12 12 14 10 8 9 8 9 10 9 9 12
21 21 21 21 21 23 26 28 30 31 28 22 14 8 9 13 17 32 39 35 27 24 26 23 25 16 15 8 15 18 19 19 10 12 18 10 14 11 8 7 9 11 9 12 12
23 23 22 22 22 23 26 30 33 33 26 18 9 8 10 13 19 45 33 25 23 23 27 26 20 11 7 13 12 10 13 16 14 17 21 12 18 14 9 9 10 9 10 11 9
23 24 25 25 24 25 28 34 34 24 14 9 13 4 9 10 17 22 32 30 13 12 17 17 12 13 12 9 16 12 10 11 17 21 19 16 11 7 11 11 12 10 9 9 10
23 24 25 26 25 25 28 16 2 3 10 11 15 13 11 25 10 17 21 19 15 10 14 19 9 17 25 21 14 16 15 19 22 22 19 8 6 8 7 9 8 9 7 9 10
25 24 24 25 26 25 24 5 13 8 11 21 27 26 33 28 13 17 23 16 14 20 16 14 24 22 20 17 18 18 20 23 22 17 8 18 22 8 9 10 9 11 10 6 11
25 23 22 24 25 24 12 17 28 23 7 14 23 28 21 22 26 23 16 20 18 20 23 26 20 20 20 21 19 19 21 21 18 21 14 5 5 6 8 6 9 10 7 15 20
24 22 21 20 14 14 18 24 28 20 5 10 12 14 23 14 24 29 31 16 19 22 22 22 20 18 23 21 18 19 18 21 22 17 6 2 5 3 5 9 9 7 9 14 14
24 21 18 13 16 9 16 30 32 9 5 8 14 14 19 28 11 24 39 23 22 22 21 17 24 25 24 22 24 21 16 17 20 15 5 6 3 5 3 8 8 3 4 12 17
25 21 16 12 18 21 20 29 16 2 11 7 3 16 16 28 17 4 32 26 18 19 23 21 12 20 28 22 23 22 13 17 18 14 11 7 8 7 5 5 1 5 11 14 13
25 20 16 12 10 17 17 9 2 8 10 6 6 8 23 19 26 17 23 26 24 22 23 21 24 22 22 22 24 17 14 10 5 5 6 7 5 8 8 7 8 10 11 10 14
23 16 15 17 19 16 11 2 11 13 23 26 25 28 16 12 21 28 17 25 25 22 10 15 14 29 25 30 18 20 16 10 7 4 5 7 5 8 11 8 10 15 13 13 14
18 15 17 19 18 16 1 8 9 11 17 20 30 20 8 24 18 24 26 27 30 28 17 18 18 17 27 20 25 14 18 14 6 3 4 5 5 7 6 8 10 12 13 13 13
7 9 15 17 18 11 3 12 11 11 19 20 20 15 21 22 16 19 15 28 27 30 21 7 5 21 22 20 19 27 7 8 2 8 6 5 4 6 9 9 9 11 11 9 10
5 3 8 8 14 2 3 6 10 14 16 18 20 19 20 19 19 19 12 13 29 27 30 18 5 7 19 23 24 14 16 7 7 6 6 1 6 8 14 9 14 11 12 14 12
2 2 9 18 3 3 6 7 8 18 18 19 19 15 15 18 18 11 11 11 8 18 30 30 5 11 16 18 25 18 14 8 8 5 4 6 5 7 9 11 15 13 14 12 11
3 3 1 10 3 3 6 15 17 20 18 13 11 19 13 8 8 10 13 24 17 18 20 21 19 4 7 11 13 25 19 9 6 5 8 6 6 5 8 10 15 15 14 14 12
3 3 1 1 3 7 8 10 13 13 17 11 13 16 14 14 13 15 24 13 27 18 21 20 15 24 13 9 10 26 16 16 9 5 7 10 4 6 8 9 10 14 16 15 15
2 3 4 2 3 6 7 10 16 17 15 16 8 15 15 11 16 19 21 25 19 11 19 5 24 18 25 20 11 22 21 21 17 9 14 9 9 12 12 11 11 18 17 15 14
2 3 5 6 7 9 6 11 16 15 12 10 12 13 16 14 12 22 18 14 10 12 18 10 13 23 18 20 23 15 28 22 19 14 7 13 13 8 12 11 9 18 20 19 17
4 5 3 6 6 5 4 10 14 16 10 11 14 16 10 10 6 7 10 15 19 19 17 8 6 13 21 20 13 14 17 23 20 13 14 11 7 4 5 13 11 12 21 21 18
Wind_Direction
335 334 337 339 337 338 331 325 318 314 309 308 308 307 322 318 311 299 239 244 242 237 232 210 217 235 247 226 229 251 254 262 269 277 284 329 14 298 344 181 238 174 129 147 155
332 333 335 333 332 334 333 331 326 318 311 306 301 308 318 318 313 259 271 257 233 241 222 210 205 216 227 242 231 230 232 249 260 273 292 302 334 334 337 308 281 93 101 146 158
321 322 325 329 332 332 330 329 327 321 316 312 307 306 310 319 282 238 2 270 235 234 230 226 236 208 229 235 241 242 241 252 261 262 275 290 318 299 293 289 68 164 165 157 153
317 314 311 314 318 320 325 328 324 319 315 315 314 307 308 299 250 168 47 348 281 223 217 228 243 239 232 234 237 244 246 249 254 259 251 279 290 285 269 236 89 128 163 154 168
319 314 307 306 307 310 311 313 314 317 318 320 320 319 321 224 236 238 285 314 342 195 214 222 236 247 243 236 238 241 247 255 263 269 228 262 264 265 258 293 120 132 148 175 184
324 319 320 313 308 309 309 306 307 307 310 315 318 318 219 243 256 254 253 259 258 211 220 221 225 234 266 248 249 253 254 259 261 270 251 255 261 255 243 267 180 191 179 190 176
317 322 319 316 312 308 302 303 301 301 301 305 309 298 253 235 248 257 242 255 256 212 216 230 236 245 252 288 274 268 273 275 270 266 264 252 252 258 232 226 228 223 199 192 189
324 315 318 318 311 307 305 301 295 293 297 299 301 258 249 256 255 255 247 260 251 254 217 232 233 238 249 262 280 282 276 260 259 269 265 230 252 237 240 224 263 213 195 201 209
329 329 315 313 314 312 308 302 294 285 286 287 270 203 269 272 230 238 232 230 245 259 218 225 231 219 255 237 264 261 256 257 263 254 263 242 254 214 210 234 259 222 222 221 200
322 324 324 316 309 313 311 308 294 289 283 234 241 231 259 235 229 229 227 222 218 239 217 221 231 229 241 233 227 236 259 250 256 254 259 259 242 203 210 212 235 245 241 213 167
325 318 320 319 311 312 323 334 220 159 225 203 189 209 271 222 251 231 200 205 222 240 221 207 204 216 218 228 231 237 245 248 251 247 252 321 285 216 225 254 238 258 251 225 169
322 321 313 318 315 308 307 257 273 336 286 237 241 227 244 276 287 276 201 188 194 219 213 226 228 223 226 220 234 226 248 260 271 276 126 229 250 236 223 235 228 232 244 216 126
325 313 314 311 317 304 248 237 290 288 266 253 237 234 230 240 249 251 248 199 194 208 214 219 223 222 228 220 231 232 230 250 260 276 284 244 233 237 253 265 277 241 188 145 151
322 313 310 308 305 315 288 326 333 247 279 264 218 245 216 214 256 228 241 218 211 207 210 233 225 221 218 230 226 240 228 240 254 265 256 266 270 289 291 293 298 253 167 155 145
319 315 301 289 294 315 294 323 321 146 273 217 213 186 191 190 133 207 218 225 216 205 201 210 207 210 226 213 223 239 225 233 242 253 252 290 323 259 259 290 285 151 207 152 149
316 305 296 285 260 267 308 329 306 227 245 264 134 175 161 203 221 20 191 216 217 226 221 221 228 209 222 231 221 230 229 233 243 246 246 226 212 256 234 232 141 129 120 138 128
318 299 278 255 259 285 315 317 260 227 286 242 237 183 186 190 213 237 184 204 208 202 218 218 223 225 223 220 232 220 220 236 260 222 204 217 272 239 259 202 166 139 133 132 134
318 298 275 248 258 268 289 254 226 239 248 293 320 318 294 183 205 212 209 207 213 210 173 208 220 214 213 220 211 225 208 213 214 178 226 245 230 254 222 155 130 125 138 130 132
317 302 256 250 240 239 119 229 226 244 280 305 334 322 350 346 343 196 218 207 209 208 207 193 225 190 213 215 214 222 211 202 207 205 198 214 250 339 113 127 120 119 124 136 142
303 295 267 242 219 211 200 239 254 271 294 310 315 311 319 328 330 353 219 216 212 210 218 250 194 230 210 214 234 215 184 191 179 195 246 281 283 224 157 163 140 127 138 135 141
313 315 277 202 196 121 231 259 271 271 294 313 312 315 311 315 306 318 262 249 207 200 207 225 218 241 211 204 214 218 218 184 149 153 176 220 277 232 176 164 149 146 146 147 152
20 295 308 150 154 196 243 261 301 297 292 291 287 281 278 294 302 303 275 316 234 199 201 210 198 235 233 207 207 216 207 169 185 213 176 171 255 159 153 146 143 150 149 150 149
288 275 359 159 215 216 255 274 278 275 292 299 286 303 271 292 300 291 306 328 335 349 211 193 224 294 253 264 209 206 195 175 132 132 189 182 244 234 133 133 146 151 154 154 155
300 310 33 199 210 262 296 286 286 286 289 278 291 300 277 262 274 286 302 312 331 331 325 194 196 214 222 211 193 197 183 187 161 159 173 217 206 166 149 140 144 154 158 163 163
242 271 328 295 305 293 302 286 288 293 271 274 278 292 277 249 276 278 289 318 326 343 349 295 203 201 225 247 246 196 188 188 202 173 187 195 169 179 173 174 174 162 161 160 164
285 335 346 296 300 307 304 291 288 290 311 297 288 253 271 253 247 280 305 318 301 323 346 327 225 202 222 223 241 258 190 188 198 194 183 178 234 176 193 186 162 158 163 171 171
322 351 346 293 292 300 278 302 305 310 289 284 295 312 284 247 257 299 285 274 270 284 302 286 331 189 215 222 238 239 218 193 202 196 184 196 181 206 189 185 177 163 167 172 175